Theta_e
312 313 314 314 315 315 316 317 317 317 316 316 316 316 317 316 316 309 303 310 313 319 320 315 309 309 307 306 308 307 300 296 298 300 303 309 309 313 318 315 330 337 337 344 347
311 311 311 311 311 312 313 314 315 316 316 316 315 315 315 315 307 303 312 317 319 321 314 308 303 303 303 305 306 303 298 298 302 304 304 308 309 310 311 312 316 334 341 345 347
310 310 310 310 310 311 311 311 312 314 315 315 315 314 314 313 301 301 319 318 320 321 316 310 305 302 300 303 303 303 297 301 303 306 307 307 307 310 309 308 315 329 337 342 345
310 310 310 309 310 310 310 310 310 311 311 313 314 315 313 308 288 307 322 316 317 320 317 311 302 298 296 298 303 298 302 302 303 306 306 305 308 308 311 311 322 338 340 342 342
311 311 310 310 310 309 309 309 309 309 310 311 312 313 310 298 298 308 319 314 309 318 313 307 300 298 294 298 301 299 300 303 305 306 306 306 305 308 311 320 327 338 338 339 342
310 310 310 310 310 309 309 309 309 309 309 310 310 311 304 293 308 308 308 307 308 312 312 308 301 300 297 297 298 301 301 302 304 304 304 303 303 304 309 318 325 334 335 336 339
311 310 310 310 310 310 310 310 310 309 309 309 309 305 299 299 309 308 307 307 309 312 309 311 305 299 298 295 299 299 297 299 300 303 302 304 300 301 309 315 321 326 334 333 336
309 310 309 310 310 310 311 311 310 310 310 311 310 304 293 306 310 308 309 305 306 307 306 309 309 301 298 299 297 294 296 291 298 300 302 302 295 303 308 314 315 320 323 330 332
310 310 310 310 310 310 311 311 311 311 311 310 304 300 292 306 302 306 306 301 303 304 306 307 306 300 298 294 291 293 288 290 293 300 299 300 296 302 308 312 314 318 321 323 327
310 310 310 311 310 311 311 311 309 306 305 304 302 294 296 294 300 303 306 304 299 299 298 299 301 295 294 292 285 287 288 290 291 296 298 297 297 301 309 311 312 316 319 320 321
309 310 310 311 311 311 308 303 296 295 298 293 293 292 296 300 302 304 304 300 301 298 292 296 293 289 291 293 293 292 290 289 292 296 295 295 297 302 308 310 312 312 315 318 320
310 310 310 311 311 310 306 297 295 297 289 296 297 297 299 301 294 301 305 296 293 289 295 293 290 294 294 293 292 292 290 290 293 296 297 295 295 300 304 307 309 310 313 315 318
310 310 310 310 310 306 299 298 303 300 289 291 295 295 296 299 294 295 299 298 293 289 291 291 294 297 293 291 290 291 291 291 291 294 298 297 294 296 301 305 309 313 315 317 318
309 310 310 310 305 302 297 302 302 301 282 285 291 295 298 298 292 300 300 299 295 289 291 292 298 295 292 289 291 288 293 293 294 292 288 298 287 296 300 302 306 310 313 314 316
309 309 309 308 303 299 301 302 302 298 274 288 292 303 300 295 295 297 303 299 292 292 292 290 294 293 291 290 292 289 294 295 296 293 295 295 291 295 301 299 302 308 311 314 317
308 308 308 305 304 304 306 303 299 283 274 285 295 292 292 294 293 297 297 300 299 294 293 293 301 297 295 294 293 295 292 293 295 294 286 293 292 292 297 300 303 307 310 313 315
308 308 306 307 302 307 302 297 283 276 288 285 287 290 290 290 290 291 292 290 288 285 286 292 294 298 298 291 293 292 290 284 284 285 285 294 292 293 300 303 304 305 308 310 312
307 304 304 306 309 308 301 288 277 283 284 290 289 290 287 289 289 290 289 287 292 293 287 286 283 294 297 292 289 291 291 286 280 282 285 293 287 293 303 308 310 311 312 314 315
306 303 303 307 308 306 294 282 282 284 288 288 289 287 287 290 290 289 288 288 291 294 286 288 289 297 297 297 294 291 288 294 288 290 287 290 294 299 304 308 309 310 308 307 311
301 299 301 308 309 302 290 286 286 287 288 289 285 288 285 287 287 287 287 291 291 297 299 294 288 296 296 297 296 293 295 288 291 283 281 287 290 292 301 305 308 307 309 312 314
301 297 304 307 307 297 287 287 290 295 295 288 288 286 288 287 290 288 288 291 296 296 299 297 294 292 295 292 290 291 290 291 293 290 286 284 289 302 304 307 307 308 316 315 317
299 293 303 305 294 294 288 291 295 295 298 289 290 290 288 291 290 289 289 293 298 299 294 297 295 289 291 296 297 295 292 293 289 287 291 292 292 305 307 309 309 314 314 315 315
294 295 305 304 287 287 292 293 295 295 295 293 288 292 294 290 288 291 291 300 299 299 297 298 293 286 288 291 295 292 293 294 296 295 290 288 292 306 310 312 315 312 313 312 312
296 290 296 298 298 290 289 291 291 297 296 297 295 294 293 291 293 289 289 298 300 301 306 303 295 292 287 289 292 290 291 294 294 290 291 292 296 303 308 310 309 311 311 313 314
297 291 294 288 290 291 293 292 289 290 296 296 293 294 294 292 293 292 295 297 300 302 302 299 293 294 294 293 293 292 291 293 292 294 290 294 297 304 308 309 309 309 310 310 310
292 291 294 290 293 292 292 290 289 290 293 291 291 294 296 292 293 292 295 295 294 300 299 301 295 295 291 294 293 292 294 294 294 295 297 298 299 308 311 311 310 309 310 309 309
298 298 294 292 291 291 291 290 290 293 294 296 295 295 294 296 299 299 300 299 299 299 299 298 296 295 289 295 294 290 295 294 296 299 300 296 302 309 308 310 310 310 310 308 309
Wind_Speed
19 19 19 18 18 17 17 17 16 15 14 13 13 14 15 12 13 13 19 12 10 18 15 9 4 7 5 4 4 3 9 15 19 18 10 6 9 3 1 1 4 4 3 6 11
19 19 19 19 19 19 19 18 18 17 17 15 12 12 14 11 14 19 19 17 18 16 8 8 9 13 8 8 7 11 14 16 4 7 12 7 2 1 2 2 4 6 7 9 11
20 19 19 19 20 19 18 18 18 18 18 18 14 10 11 11 10 7 14 14 16 16 14 5 6 10 13 7 9 9 17 10 8 8 6 8 9 2 1 2 2 5 9 10 11
19 19 19 18 19 19 19 18 19 19 18 17 16 13 8 3 8 8 13 15 14 16 17 9 12 10 12 14 10 10 13 12 10 10 10 5 3 8 6 3 3 10 11 10 12
21 23 22 20 20 17 18 18 19 19 18 17 16 15 8 9 15 13 16 18 13 4 16 15 16 13 16 15 13 17 7 15 12 9 8 5 10 5 4 7 8 13 10 10 10
21 22 22 22 21 21 20 20 18 18 18 17 16 16 9 19 18 20 20 14 5 8 12 12 9 12 12 10 22 14 14 10 16 10 6 11 6 4 7 7 8 14 13 11 11
20 21 22 22 22 21 21 19 18 19 19 19 17 10 12 22 7 7 8 5 3 3 7 13 4 13 9 8 7 7 16 18 10 18 12 6 13 10 6 10 10 10 11 11 12
22 21 22 24 23 23 23 21 20 22 22 20 16 9 14 8 14 23 20 20 12 10 4 5 5 5 5 8 9 13 8 13 18 12 8 16 19 15 12 10 12 11 10 11 13
23 22 23 25 25 25 23 22 24 25 24 17 9 6 12 4 9 16 18 19 12 16 11 7 4 7 5 14 10 18 15 17 8 22 8 16 9 12 16 15 12 11 10 10 11
24 23 24 24 26 24 23 21 19 12 3 7 3 8 8 7 6 4 4 17 10 13 10 8 7 11 12 18 23 17 20 16 14 10 24 16 8 8 15 19 15 12 11 9 10
27 24 24 24 23 20 13 6 3 2 3 7 9 6 4 9 4 3 8 17 8 15 14 14 12 22 23 16 6 12 18 13 16 9 18 18 15 10 13 13 15 11 11 11 12
28 26 25 23 22 20 3 1 3 2 10 15 20 19 20 8 3 11 16 7 10 16 17 10 21 16 14 15 9 13 17 15 9 12 10 16 18 16 14 12 14 16 15 15 13
27 25 24 23 19 2 2 5 2 3 6 9 12 12 16 15 16 16 12 7 11 17 23 20 11 16 18 19 16 7 15 14 13 15 4 12 12 18 14 11 10 15 13 13 14
27 25 22 19 7 0 3 1 3 1 4 5 5 5 9 8 8 21 20 13 8 20 21 16 11 22 20 22 20 9 7 13 13 17 7 8 6 9 14 13 14 14 15 16 16
28 28 22 11 3 3 1 2 2 1 6 7 6 7 6 7 8 9 14 17 14 10 17 19 23 22 24 25 22 11 10 7 11 13 9 9 4 4 5 12 14 16 19 20 18
33 30 18 2 3 3 1 1 2 3 5 3 7 8 8 9 5 3 16 11 6 11 20 17 18 18 12 18 21 11 11 5 6 6 8 11 9 7 8 11 10 13 16 18 18
33 27 6 3 2 4 2 2 3 4 7 3 3 3 11 9 11 8 14 16 11 11 19 17 22 16 17 20 17 17 17 8 7 8 4 9 9 3 8 7 9 9 12 15 15
30 9 1 2 0 3 2 1 5 5 7 6 7 16 9 5 9 18 10 15 20 10 20 18 12 22 21 26 18 24 21 7 9 9 9 7 9 4 5 3 6 10 13 13 14
19 4 2 3 3 4 1 2 4 3 5 7 11 5 4 1 3 4 12 21 19 13 16 14 10 23 26 21 21 20 18 5 8 4 9 5 3 5 7 7 6 10 7 5 10
4 4 3 6 3 2 1 5 5 5 4 4 5 3 4 4 3 5 10 18 15 16 12 11 16 19 21 17 18 19 13 7 3 10 8 7 6 6 4 7 11 9 5 7 6
2 2 2 5 1 2 4 5 9 11 6 4 4 4 4 2 5 5 12 15 11 17 14 7 14 15 22 16 23 19 15 2 5 2 5 8 4 1 3 8 10 3 9 10 12
5 1 4 2 3 3 5 16 11 13 6 1 4 5 1 5 2 4 4 5 9 9 10 3 11 19 24 7 14 17 16 4 4 5 3 4 5 2 6 7 2 9 12 17 18
5 4 3 4 6 9 8 9 11 16 12 2 2 4 4 2 0 4 1 9 23 14 3 9 8 14 13 9 15 17 18 8 6 3 3 4 5 1 1 4 8 12 15 19 19
3 6 4 4 3 10 10 8 19 15 8 12 5 3 4 2 1 3 2 10 18 9 9 9 7 15 9 15 16 14 22 16 10 3 6 3 8 6 5 9 11 14 16 19 19
5 4 5 8 9 15 12 9 16 12 6 10 6 15 3 3 2 1 16 10 5 6 3 3 9 8 9 17 18 12 22 14 11 9 8 7 8 8 7 11 14 15 18 18 19
5 5 4 7 12 13 12 8 14 20 7 12 13 17 8 4 7 7 19 7 5 10 13 1 5 7 11 20 21 13 18 20 15 9 4 13 8 6 7 13 17 17 19 19 18
2 3 3 9 10 10 12 13 14 20 9 11 17 7 5 7 6 3 2 3 6 5 4 3 5 9 7 15 17 11 4 9 8 12 9 9 7 13 13 15 17 18 19 21 20
Wind_Direction
341 339 336 328 331 333 335 329 313 307 307 311 312 315 314 306 308 291 267 235 211 246 276 270 173 175 177 203 169 160 217 220 215 213 208 181 189 169 45 66 64 29 32 102 133
345 341 337 333 327 325 325 324 318 316 309 300 303 312 314 311 301 282 260 228 238 250 269 231 183 164 176 192 189 199 220 215 224 197 212 196 218 77 204 66 117 102 103 131 141
344 341 338 334 330 330 327 324 323 320 314 308 295 299 311 318 301 225 69 185 233 239 230 245 191 176 193 181 188 194 225 193 199 193 203 202 219 313 268 232 218 190 148 148 144
339 335 333 331 328 325 320 319 316 312 305 312 312 285 294 281 271 186 113 31 346 294 192 208 195 186 191 193 179 210 219 206 204 207 211 200 198 231 244 233 139 148 145 150 152
335 334 330 329 322 316 313 312 307 306 305 304 302 304 270 217 240 269 280 328 331 122 183 192 191 189 192 196 182 211 185 207 203 187 193 211 232 222 191 145 141 145 145 149 153
335 333 332 328 324 321 316 309 305 301 302 298 295 294 271 246 252 250 276 305 306 214 200 199 216 200 195 196 198 191 205 193 216 207 215 219 228 225 199 154 147 167 162 158 156
333 332 328 323 319 313 309 303 299 299 294 291 287 281 258 244 260 242 256 248 14 221 236 199 272 214 145 165 200 153 189 214 199 212 216 210 233 211 222 174 171 184 182 178 171
334 330 325 321 318 313 309 304 299 293 287 280 276 267 256 276 262 255 249 253 265 277 294 249 249 223 225 128 144 175 179 191 207 175 191 195 238 196 213 180 186 180 179 190 197
330 326 321 320 317 313 309 303 298 291 288 274 245 229 268 305 236 252 235 229 220 239 255 269 234 212 168 173 151 193 201 201 171 202 161 199 227 207 201 203 190 192 191 191 196
328 326 321 318 315 315 313 310 293 308 49 117 198 183 246 226 219 229 233 200 191 193 226 215 199 193 201 191 201 182 193 193 189 165 203 198 217 179 187 191 199 193 202 211 212
328 326 322 318 319 323 331 322 355 198 213 220 199 238 278 211 313 153 118 152 166 178 192 191 187 204 193 202 249 163 185 164 197 149 179 202 199 160 178 198 194 210 214 221 231
326 327 322 319 319 320 298 301 245 16 294 248 251 240 263 263 296 114 133 157 176 186 186 185 214 197 179 189 180 177 170 185 167 176 205 189 206 209 202 204 215 220 221 224 231
326 325 322 322 318 316 262 280 269 355 275 286 232 234 233 235 252 243 226 182 184 177 198 200 194 175 178 181 193 173 181 161 149 168 148 155 196 219 229 235 223 227 228 221 227
328 326 327 324 296 235 279 2 38 228 290 249 205 225 171 215 235 224 198 184 173 194 196 222 203 174 179 187 191 168 190 179 137 154 175 214 192 212 216 208 216 217 220 233 230
330 328 324 316 276 234 193 117 165 202 310 134 146 135 171 184 330 167 198 193 204 171 184 189 181 186 181 184 182 180 166 139 171 170 158 168 208 144 181 219 223 219 220 221 219
332 330 329 146 201 252 46 32 170 218 252 232 149 185 178 201 197 188 176 223 223 190 199 193 182 182 183 176 180 170 151 71 100 154 205 169 202 181 174 205 223 230 230 228 228
332 329 313 196 338 124 124 120 265 241 6 264 252 270 248 201 191 208 163 189 188 175 179 186 175 179 183 157 186 175 163 139 164 186 173 171 190 161 191 224 242 256 237 224 230
330 348 327 264 280 179 161 115 242 222 241 258 274 276 265 221 203 198 196 190 214 219 166 168 180 172 178 169 183 185 179 169 163 177 138 161 200 134 163 231 244 270 276 257 243
325 332 310 316 251 205 203 272 264 275 294 298 295 262 312 43 143 104 166 179 194 203 171 179 160 175 178 176 152 180 199 139 107 98 144 162 158 231 223 244 284 315 295 222 206
327 325 319 329 136 235 288 284 265 219 287 254 286 337 352 51 79 106 153 184 188 205 229 195 132 181 171 178 186 183 149 170 153 152 153 173 161 123 207 317 336 353 21 68 97
334 334 20 342 197 253 344 301 293 301 294 219 304 313 341 67 128 107 176 165 172 210 224 212 151 157 162 184 174 170 191 132 103 342 136 142 158 90 312 309 314 13 93 99 101
332 343 19 323 356 346 335 313 294 313 350 152 290 279 309 353 68 99 140 254 173 219 214 215 156 157 168 189 180 179 186 178 134 150 58 85 122 66 292 302 219 106 103 98 93
341 307 357 342 16 351 327 317 331 329 334 269 242 252 343 341 122 109 190 200 176 200 190 166 154 136 167 133 171 181 177 186 105 136 77 101 141 97 356 117 111 117 111 103 103
349 351 339 11 6 333 327 336 341 333 333 336 348 220 265 243 78 132 244 157 192 228 9 32 169 166 173 163 152 169 170 176 193 159 138 96 143 174 127 129 124 115 114 118 109
15 20 356 323 342 328 345 327 331 345 332 340 336 355 344 328 44 27 128 128 157 221 260 263 161 185 145 137 163 145 174 177 165 154 191 173 162 155 151 147 130 121 125 121 120
12 348 332 291 304 328 355 330 330 332 314 329 339 338 26 37 26 53 124 116 205 251 259 275 126 133 138 147 158 144 167 184 191 176 101 139 144 151 149 138 139 136 134 129 124
350 271 286 313 323 340 348 337 316 334 304 323 324 324 22 4 338 321 8 246 287 249 148 32 146 132 126 151 145 160 154 190 171 190 153 170 159 163 152 156 148 143 144 135 123